Date String (YYYY-MM-DD hh:mm:ss) UTC,Instrument flags,Ambient pressure (hPa),Sample flow (lpm),Bypass flow (lpm),Sample temperature (°C),Ambient temperature (°C),ASC tube jacket temperature (°C),LED temperature (°C),Box temperature (°C),Sample RH (%),Span deviation,Mass concentration (μg/m³),Mass concentration (μg/m³),Mass concentration (μg/m³)
DateTimeUTC,F1_M11,P_M11,Q1_M11,Q2_M11,T1_M11,T2_M11,T3_M11,T4_M11,T5_M11,U1_M11,ZSPAN_M11,X0_M11,X2_M11,X1_M11
2022-03-31 14:00:00,,0818.9,5.00,0.00,22.8,21.9,00.0,31.7,24.6,08.8,0000.0,0006.35,0002.57,0001.21
2022-03-31 14:01:00,,0819.0,5.00,0.00,22.8,21.9,00.0,31.7,24.6,09.3,0000.0,0006.60,0002.56,0001.20
2022-03-31 14:02:00,,0819.0,4.99,0.00,22.8,21.9,00.0,31.7,24.6,09.6,0000.0,0006.75,0002.59,0001.20
2022-03-31 14:03:00,,0818.9,5.00,0.00,22.8,22.0,00.0,31.7,24.6,08.8,0000.0,0007.03,0002.68,0001.21
2022-03-31 14:04:00,,0819.0,5.00,0.00,22.8,22.0,00.0,31.7,24.6,09.8,0000.0,0006.72,0002.60,0001.22
2022-03-31 14:05:00,,0819.0,5.00,0.00,22.8,22.0,00.0,31.7,24.6,10.5,0000.0,0006.44,0002.58,0001.24
2022-03-31 14:06:00,,0819.0,5.00,0.00,22.8,22.0,00.0,31.7,24.6,09.8,0000.0,0006.18,0002.57,0001.25
2022-03-31 14:07:00,,0818.9,4.99,0.00,22.8,22.0,00.0,31.7,24.7,11.1,0000.0,0006.19,0002.60,0001.26
2022-03-31 14:08:00,,0818.9,5.00,0.00,22.8,22.0,00.0,31.7,24.6,11.4,0000.0,0006.21,0002.64,0001.28
2022-03-31 14:09:00,,0818.9,5.01,0.00,22.8,22.0,00.0,31.7,24.6,11.9,0000.0,0006.22,0002.58,0001.30
2022-03-31 14:10:00,,0819.0,5.00,0.00,22.8,22.0,00.0,31.7,24.7,12.0,0000.0,0006.59,0002.58,0001.32
2022-03-31 14:11:00,,0819.0,5.01,0.00,22.9,22.0,00.0,31.7,24.7,11.0,0000.0,0006.57,0002.65,0001.33
2022-03-31 14:12:00,,0819.0,5.00,0.00,22.9,22.0,00.0,31.8,24.7,09.2,0000.0,0006.29,0002.69,0001.34
2022-03-31 14:13:00,,0818.9,5.00,0.00,22.9,22.0,00.0,31.8,24.7,09.5,0000.0,0006.48,0002.77,0001.37
2022-03-31 14:14:00,,0818.9,5.00,0.00,22.9,22.1,00.0,31.8,24.7,09.4,0000.0,0006.81,0002.78,0001.38
2022-03-31 14:15:00,,0819.0,5.00,0.00,22.9,22.1,00.0,31.8,24.7,09.8,0000.0,0006.82,0002.76,0001.38
2022-03-31 14:16:00,,0818.9,4.99,0.00,22.9,22.1,00.0,31.8,24.7,09.1,0000.0,0007.05,0002.81,0001.38
2022-03-31 14:17:00,,0818.9,4.99,0.00,22.9,22.1,00.0,31.8,24.7,09.6,0000.0,0007.96,0002.88,0001.38
2022-03-31 14:18:00,,0818.9,5.00,0.00,22.9,22.1,00.0,31.8,24.7,09.0,0000.0,0007.93,0002.87,0001.40
2022-03-31 14:19:00,,0818.9,5.00,0.00,22.9,22.1,00.0,31.8,24.8,09.9,0000.0,0007.89,0002.87,0001.41
2022-03-31 14:20:00,,0819.0,5.00,0.00,22.9,22.1,00.0,31.8,24.8,09.6,0000.0,0007.97,0002.93,0001.42
2022-03-31 14:21:00,,0818.9,5.00,0.00,22.9,22.1,00.0,31.8,24.8,08.8,0000.0,0007.79,0003.02,0001.41
2022-03-31 14:22:00,,0819.0,5.00,0.00,22.9,22.1,00.0,31.9,24.8,09.6,0000.0,0007.71,0003.03,0001.40
2022-03-31 14:23:00,,0819.0,5.00,0.00,23.0,22.1,00.0,31.9,24.8,10.2,0000.0,0007.65,0003.00,0001.41
2022-03-31 14:24:00,,0818.9,5.00,0.00,23.0,22.1,00.0,31.9,24.8,09.4,0000.0,0007.57,0002.96,0001.38
2022-03-31 14:25:00,,0819.0,5.00,0.00,23.0,22.1,00.0,31.9,24.8,09.2,0000.0,0007.53,0003.02,0001.38
2022-03-31 14:26:00,,0819.0,5.01,0.00,23.0,22.1,00.0,31.9,24.8,08.8,0000.0,0007.77,0003.12,0001.39
2022-03-31 14:27:00,,0819.0,4.99,0.00,23.0,22.1,00.0,31.9,24.8,08.1,0000.0,0007.90,0003.15,0001.40
2022-03-31 14:28:00,,0819.0,4.99,0.00,23.0,22.1,00.0,31.9,24.8,08.5,0000.0,0007.45,0003.17,0001.40
2022-03-31 14:29:00,,0819.0,5.01,0.00,23.0,22.1,00.0,31.9,24.8,08.5,0000.0,0007.79,0003.14,0001.39
2022-03-31 14:30:00,,0819.0,4.99,0.00,23.0,22.1,00.0,31.9,24.8,10.2,0000.0,0007.75,0003.10,0001.38
2022-03-31 14:31:00,,0819.0,5.00,0.00,23.0,22.1,00.0,31.9,24.8,11.1,0000.0,0007.61,0003.03,0001.37
2022-03-31 14:32:00,,0819.0,5.00,0.00,23.0,22.1,00.0,31.9,24.8,11.2,0000.0,0007.55,0003.00,0001.40
2022-03-31 14:33:00,,0819.0,5.00,0.00,23.0,22.1,00.0,31.9,24.8,10.8,0000.0,0008.44,0003.01,0001.43
2022-03-31 14:34:00,,0819.0,5.00,0.00,23.0,22.1,00.0,31.9,24.8,09.9,0000.0,0008.50,0003.02,0001.44
2022-03-31 14:35:00,,0819.0,5.00,0.00,23.0,22.1,00.0,31.9,24.8,10.5,0000.0,0008.53,0003.02,0001.47
2022-03-31 14:36:00,,0819.0,5.00,0.00,23.0,22.1,00.0,31.9,24.8,10.0,0000.0,0008.41,0003.00,0001.48
2022-03-31 14:37:00,,0819.0,5.00,0.00,23.0,22.1,00.0,31.9,24.8,10.1,0000.0,0008.26,0002.98,0001.47
2022-03-31 14:38:00,,0819.0,5.00,0.00,23.0,22.1,00.0,32.0,24.8,10.4,0000.0,0008.30,0003.03,0001.49
2022-03-31 14:39:00,,0819.0,5.00,0.00,23.0,22.1,00.0,32.0,24.8,09.7,0000.0,0007.98,0002.97,0001.51
2022-03-31 14:40:00,,0819.0,5.00,0.00,23.0,22.1,00.0,32.0,24.8,09.6,0000.0,0007.66,0003.02,0001.53
2022-03-31 14:41:00,,0819.0,4.99,0.00,23.0,22.2,00.0,32.0,24.8,09.7,0000.0,0008.07,0003.10,0001.54
2022-03-31 14:42:00,,0819.0,4.99,0.00,23.0,22.2,00.0,32.0,24.8,08.9,0000.0,0008.20,0003.09,0001.52
2022-03-31 14:43:00,,0819.0,5.00,0.00,23.0,22.2,00.0,32.0,24.8,08.2,0000.0,0008.28,0003.09,0001.49
2022-03-31 14:44:00,,0818.9,5.01,0.00,23.0,22.2,00.0,32.0,24.8,09.8,0000.0,0007.40,0003.07,0001.47
2022-03-31 14:45:00,,0819.0,5.00,0.00,23.0,22.2,00.0,32.0,24.8,09.1,0000.0,0007.47,0003.11,0001.47
2022-03-31 14:46:00,,0819.0,5.00,0.00,23.0,22.2,00.0,32.0,24.9,08.2,0000.0,0007.58,0003.15,0001.47
2022-03-31 14:47:00,,0818.9,5.01,0.00,23.0,22.2,00.0,32.0,24.9,08.4,0000.0,0007.66,0003.14,0001.46
2022-03-31 14:48:00,,0819.0,5.00,0.00,23.1,22.2,00.0,32.0,24.9,08.9,0000.0,0007.72,0003.15,0001.48
2022-03-31 14:49:00,,0818.9,5.01,0.00,23.1,22.2,00.0,32.0,24.9,09.1,0000.0,0007.63,0003.08,0001.45
2022-03-31 14:50:00,,0819.0,5.00,0.00,23.1,22.2,00.0,32.0,24.9,09.0,0000.0,0007.68,0003.04,0001.43
2022-03-31 14:51:00,,0819.0,5.00,0.00,23.1,22.2,00.0,32.0,24.9,08.8,0000.0,0007.91,0003.09,0001.43
2022-03-31 14:52:00,,0818.9,4.98,0.00,23.1,22.2,00.0,32.0,24.9,09.4,0000.0,0007.68,0003.07,0001.43
2022-03-31 14:53:00,,0818.9,5.00,0.00,23.1,22.2,00.0,32.0,24.9,09.9,0000.0,0007.46,0003.08,0001.44
2022-03-31 14:54:00,,0819.0,5.00,0.00,23.1,22.2,00.0,32.0,24.9,10.5,0000.0,0007.41,0003.11,0001.45
2022-03-31 14:55:00,,0819.0,5.00,0.00,23.1,22.2,00.0,32.0,24.9,10.3,0000.0,0007.42,0003.13,0001.45
2022-03-31 14:56:00,,0818.9,5.01,0.00,23.1,22.3,00.0,32.0,24.9,10.1,0000.0,0007.40,0003.12,0001.45
2022-03-31 14:57:00,,0819.0,5.01,0.00,23.1,22.3,00.0,32.0,24.9,10.2,0000.0,0007.21,0003.03,0001.44
2022-03-31 14:58:00,,0819.0,5.00,0.00,23.1,22.3,00.0,32.0,24.9,10.2,0000.0,0007.02,0002.99,0001.44
2022-03-31 14:59:00,,0819.0,5.00,0.00,23.1,22.3,00.0,32.0,24.9,10.0,0000.0,0006.87,0002.94,0001.44
